Regional Weather Roundup
Issued by NWS Midland/Odessa, TX

Skip options and go directly to product.
Home | Oldest Version | Previous Version | Current Version | All | Text Only | Save Text | Print | Product List | Glossary On

Skip product version selection by date and time.   
709
ASUS44 KMAF 231402
RWRMAF
MIDLAND AREA WEATHER ROUNDUP
NATIONAL WEATHER SERVICE MIDLAND TX
900 AM CDT THU OCT 23 2014

...IN SOUTHWEST TEXAS AND SOUTHEAST NEW MEXICO...

CITY           SKY/WX    TMP DP  RH WIND       PRES   REMARKS
ALPINE         SUNNY     59  56  92 SW6       30.27R
ANDREWS        FOG       56  56 100 S6        30.16R VSB 1/4
ARTESIA        NOT AVBL
BIG SPRING     CLOUDY    63  60  89 S7        30.16S
CARLSBAD       FOG       58  57  97 CALM      30.14R VSB 1/4
DRYDEN           N/A     63  60  90 SW6       30.13R
FORT STOCKTON  SUNNY     61  58  90 SW12      30.14R
GUAD PASS      NOT AVBL
HOBBS          FOG       55  55 100 CALM      30.17R VSB 0
MARFA          CLOUDY    55  55 100 CALM      30.26R
MIDLAND AIRPK  CLOUDY    62  62 100 S7        30.15R FOG
MIDLAND INTL   CLOUDY    59  58  96 S8        30.14R FOG
ODESSA         FOG       58  57  97 S7        30.15R VSB 1/4
PECOS          FOG       57  56  97 CALM      30.14R VSB<1/4
PRESIDIO       FAIR      62  59  90 CALM      30.16R
SEMINOLE       FOG       56  56  99 CALM      30.17R VSB<1/4
SNYDER         CLOUDY    58  57  96 S7        30.16R FOG
WINK           CLOUDY    57  57 100 E3        30.13R
$$
...OTHER STATIONS IN TEXAS...

CITY           SKY/WX    TMP DP  RH WIND       PRES   REMARKS
ABILENE        SUNNY     62  56  80 SE6       30.14R
AMARILLO       MOSUNNY   60  57  89 S7        30.12S
AUSTIN         PTSUNNY   66  63  90 E5        30.13R
BROWNSVILLE    MOSUNNY   73  69  87 NW5       30.05R
CORPUS CHRISTI PTSUNNY   68  64  87 N10       30.09R
DALLAS FTW     CLOUDY    64  56  75 SE5       30.15R
DEL RIO        CLOUDY    65  63  93 E7        30.11R
EL PASO        CLEAR     56  52  86 CALM      30.18R
HOUSTON INT    CLOUDY    61  54  77 E7        30.11R
LUBBOCK        FOG       52  51  97 SW7       30.15R VSB 1/8
SAN ANGELO     CLOUDY    57  55  93 S3        30.15R
SAN ANTONIO    PTSUNNY   70  66  87 N3        30.13R
WACO           MOSUNNY   64  59  83 E3        30.15R
WICHITA FALLS  NOT AVBL
$$
...OTHER LOCATIONS IN NEW MEXICO...

CITY           SKY/WX    TMP DP  RH WIND       PRES   REMARKS
ALAMAGORDO     NOT AVBL
ALBUQUERQUE    CLEAR     53  42  66 CALM      30.28R
CANNON AFB     CLOUDY    56  55  94 W10       30.16R FOG
CLOVIS         PTSUNNY   57  54  88 W7        30.18R
HOLLOMAN AFB   CLEAR     51  49  93 E5        30.18S
ROSWELL        FOG       55  54  96 CALM      30.16R VSB 1/16
RUIDOSO        CLEAR     48  41  76 W9        30.31R
SANTA FE       CLEAR     43  34  70 N12       30.30R WCI  37
TRUTH OR CONSE NOT AVBL
TUCUMCARI      CLEAR     52  50  93 W7        30.13R
$$

USA.gov is the U.S. government's official web portal to all federal, state and local government web resources and services.